| time (UTC) | temp C | wind direction | speed KPH | gust KPH | rain 1hr cm | rain 24hr cm | rain mn cm | humidity % | barometer mb |
| 20260507230505 | 10 | 196 | 20.9 | 25.7 | 0.00 | 0.00 | 0.00 | 1014.0 | |
| 20260507223506 | 10 | 198 | 19.3 | 24.1 | 0.00 | 0.00 | 0.00 | 1014.0 | |
| 20260507220506 | 10 | 198 | 19.3 | 24.1 | 0.00 | 0.00 | 0.00 | 1014.0 | |
| 20260507213506 | 10 | 199 | 19.3 | 24.1 | 0.00 | 0.00 | 0.00 | 1014.0 | |
| 20260507210506 | 10 | 199 | 19.3 | 24.1 | 0.00 | 0.00 | 0.00 | 1014.0 | |
| 20260507203506 | 11 | 200 | 19.3 | 24.1 | 0.00 | 0.00 | 0.00 | 1014.0 | |
| 20260507200506 | 11 | 200 | 19.3 | 24.1 | 0.00 | 0.00 | 0.00 | 1014.0 | |
| 20260507193506 | 11 | 204 | 20.9 | 24.1 | 0.00 | 0.00 | 0.00 | 1014.0 | |
| 20260507190506 | 11 | 204 | 20.9 | 24.1 | 0.00 | 0.00 | 0.00 | 1013.0 | |
| 20260507183506 | 11 | 201 | 20.9 | 24.1 | 0.00 | 0.00 | 0.00 | 1013.0 | |
| 20260507180506 | 11 | 201 | 20.9 | 24.1 | 0.00 | 0.00 | 0.00 | 1013.0 | |
| 20260507173505 | 12 | 214 | 20.9 | 24.1 | 0.00 | 0.00 | 0.00 | 1013.0 | |
| 20260507170506 | 12 | 214 | 20.9 | 24.1 | 0.00 | 0.00 | 0.00 | 1013.0 | |
| 20260507163505 | 11 | 210 | 14.5 | 17.7 | 0.00 | 0.00 | 0.00 | 1013.0 | |
| 20260507160505 | 11 | 210 | 14.5 | 17.7 | 0.00 | 0.00 | 0.00 | 1013.0 | |
| 20260507153505 | 11 | 210 | 16.1 | 19.3 | 0.00 | 0.00 | 0.00 | 1014.0 | |
| 20260507150505 | 11 | 210 | 16.1 | 19.3 | 0.00 | 0.00 | 0.00 | 1013.0 | |
| 20260507143505 | 11 | 206 | 16.1 | 19.3 | 0.00 | 0.00 | 0.00 | 1014.0 | |
| 20260507140505 | 11 | 206 | 16.1 | 19.3 | 0.00 | 0.00 | 0.00 | 1014.0 | |
| 20260507133505 | 11 | 202 | 14.5 | 17.7 | 0.00 | 0.00 | 0.00 | 1014.0 | |
| 20260507130505 | 11 | 202 | 14.5 | 17.7 | 0.00 | 0.00 | 0.00 | 1014.0 | |
| 20260507123506 | 11 | 198 | 14.5 | 17.7 | 0.00 | 0.00 | 0.00 | 1015.0 | |
| 20260507120506 | 11 | 198 | 14.5 | 17.7 | 0.00 | 0.00 | 0.00 | 1014.0 | |
| 20260507113506 | 10 | 186 | 12.9 | 14.5 | 0.00 | 0.00 | 0.00 | 1014.0 | |
| 20260507110506 | 10 | 186 | 12.9 | 14.5 | 0.00 | 0.00 | 0.00 | 1014.0 | |
| 20260507103506 | 10 | 150 | 8.0 | 9.7 | 0.00 | 0.00 | 0.00 | 1015.0 | |
| 20260507100506 | 10 | 150 | 8.0 | 9.7 | 0.00 | 0.00 | 0.00 | 1014.0 | |
| 20260507093506 | 9 | 156 | 6.4 | 9.7 | 0.00 | 0.00 | 0.00 | 1015.0 | |
| 20260507090506 | 9 | 156 | 6.4 | 9.7 | 0.00 | 0.00 | 0.00 | 1015.0 | |
| 20260507083505 | 8 | 152 | 4.8 | 9.7 | 0.00 | 0.00 | 0.00 | 1015.0 | |
| 20260507080506 | 8 | 152 | 4.8 | 9.7 | 0.00 | 0.00 | 0.00 | 1015.0 | |
| 20260507073505 | 8 | 194 | 9.7 | 12.9 | 0.00 | 0.00 | 0.00 | 1015.0 | |
| 20260507070505 | 8 | 194 | 9.7 | 12.9 | 0.00 | 0.00 | 0.00 | 1015.0 | |
| 20260507063505 | 7 | 197 | 11.3 | 16.1 | 0.00 | 0.00 | 0.00 | 1015.0 | |
| 20260507060505 | 7 | 194 | 4.8 | 9.7 | 0.00 | 0.00 | 0.00 | 1015.0 | |
| 20260507053506 | 7 | 183 | 8.0 | 12.9 | 0.00 | 0.00 | 0.00 | 1015.0 | |
| 20260507050505 | 7 | 183 | 8.0 | 12.9 | 0.00 | 0.00 | 0.00 | 1015.0 | |
| 20260507043506 | 7 | 181 | 11.3 | 16.1 | 0.00 | 0.00 | 0.00 | 1015.0 | |
| 20260507040506 | 7 | 181 | 11.3 | 16.1 | 0.00 | 0.00 | 0.00 | 1015.0 | |
| 20260507033506 | 6 | 174 | 14.5 | 20.9 | 0.00 | 0.00 | 0.00 | 1015.0 | |
| 20260507030506 | 6 | 174 | 14.5 | 20.9 | 0.00 | 0.00 | 0.00 | 1015.0 | |
| 20260507023506 | 6 | 170 | 16.1 | 22.5 | 0.00 | 0.00 | 0.00 | 1016.0 | |
| 20260507020506 | 6 | 170 | 16.1 | 22.5 | 0.00 | 0.00 | 0.00 | 1016.0 | |
| 20260507013506 | 7 | 165 | 17.7 | 24.1 | 0.00 | 0.00 | 0.00 | 1016.0 | |
| 20260507010506 | 7 | 165 | 17.7 | 24.1 | 0.00 | 0.00 | 0.00 | 1016.0 | |
| 20260507003506 | 7 | 161 | 17.7 | 25.7 | 0.00 | 0.00 | 0.00 | 1016.0 | |
| 20260507000506 | 7 | 163 | 19.3 | 25.7 | 0.00 | 0.00 | 0.00 | 1016.0 | |
| 20260506233505 | 7 | 159 | 20.9 | 29.0 | 0.00 | 0.00 | 0.00 | 1016.0 |